Wind_Speed
4 4 4 3 3 2 3 3 4 3 4 5 4 3 3 3 3 2 2 2 1 2 1 1 2 2 1 1 1 1 1 1 1 1 1 2 2 2 3 3 3 1 1 3 4 4 5 5 5
4 4 4 4 3 3 3 3 4 4 4 4 4 3 3 2 2 2 2 1 1 1 1 1 1 1 1 1 1 1 2 2 2 2 2 2 2 2 2 2 1 0 1 2 3 4 5 5 6
5 5 4 4 4 4 4 4 3 3 3 3 3 3 2 2 2 1 1 2 1 0 1 1 1 1 1 1 2 2 2 2 2 3 3 3 3 3 3 3 2 2 2 2 4 5 6 6 7
6 5 5 5 5 5 5 4 4 3 3 3 3 3 2 2 1 1 2 1 1 1 2 2 2 2 2 3 3 3 3 4 4 3 3 4 4 4 4 4 3 3 3 4 5 6 6 6 7
6 6 6 6 5 5 6 5 5 5 4 4 4 3 4 3 3 3 3 2 2 2 3 3 3 4 4 4 5 5 5 5 5 4 4 4 4 5 5 4 4 5 5 5 5 6 7 7 8
7 7 7 7 6 6 6 6 6 6 6 6 5 5 5 4 4 4 4 4 3 3 4 4 4 5 5 5 6 6 6 6 6 5 5 5 5 5 5 5 5 5 6 6 7 7 7 8 8
8 8 8 8 8 7 7 7 7 7 7 7 7 6 6 6 6 6 6 5 5 5 5 6 6 6 6 6 6 6 6 6 6 6 5 5 6 7 6 6 6 7 6 7 7 7 8 8 9
8 8 9 9 9 8 8 7 7 7 7 8 7 7 7 7 7 7 7 7 7 7 7 7 7 6 6 7 7 7 7 7 7 7 6 6 7 7 7 7 8 8 8 8 8 8 9 9 9
8 9 9 10 10 9 9 8 8 8 8 8 8 8 8 8 7 7 7 7 7 8 8 7 7 7 7 8 7 7 7 7 7 7 7 7 7 8 8 8 8 8 8 8 8 9 9 9 9
9 9 9 10 10 10 10 10 10 9 9 9 9 9 9 8 8 8 8 8 8 8 8 8 8 8 8 8 8 8 8 7 7 7 7 8 8 8 8 8 8 9 9 8 9 9 9 9 10
10 10 10 10 10 11 11 10 10 10 10 10 10 10 10 9 9 9 8 9 8 9 8 8 8 9 9 9 9 9 8 8 8 8 8 8 9 9 9 9 9 9 9 9 10 10 9 9 10
11 11 11 10 10 10 10 10 10 10 10 10 10 10 10 10 10 10 9 9 9 9 9 9 9 9 9 9 9 9 9 9 9 9 10 10 10 10 9 9 9 9 9 10 10 10 10 10 9
11 11 11 11 10 10 10 10 10 10 11 11 11 11 11 11 11 10 10 10 10 10 10 10 10 9 9 10 10 9 9 10 10 10 10 10 10 10 10 10 10 10 10 11 11 10 10 11 10
12 12 12 11 11 10 10 10 11 11 11 11 11 11 11 11 11 11 11 11 11 10 10 10 10 10 10 10 10 10 10 10 10 10 11 11 11 10 11 11 11 11 11 11 11 11 11 11 10
12 13 13 12 12 11 11 11 11 11 11 11 11 11 11 11 11 12 12 11 11 10 10 10 10 11 10 10 11 11 10 10 10 11 11 11 11 11 11 11 11 11 12 12 12 12 12 12 12
13 13 13 13 13 12 12 12 12 12 12 11 11 11 12 12 12 12 12 11 11 11 11 11 11 11 11 12 12 12 12 11 11 11 12 11 11 11 11 11 11 12 12 12 12 12 12 12 12
13 13 14 14 13 13 13 13 13 13 12 12 12 12 12 13 13 13 13 12 12 12 12 11 12 12 12 12 12 12 12 12 11 11 11 11 11 11 11 11 12 12 12 12 12 12 12 12 12
12 13 13 14 13 14 14 13 13 13 12 12 12 12 13 13 13 13 13 13 13 12 12 12 12 12 13 12 12 12 12 11 11 11 11 11 11 11 11 11 12 12 12 13 13 13 13 13 13
13 13 13 13 13 14 14 13 13 13 13 12 12 13 13 13 13 13 12 13 13 13 12 13 13 13 13 13 13 13 13 12 12 12 11 11 11 12 12 12 12 12 13 13 13 13 13 13 13
12 13 13 14 14 14 14 13 13 13 13 13 13 12 13 13 13 13 13 13 13 13 13 13 14 14 14 14 14 14 14 13 12 12 12 12 12 12 12 13 13 13 13 14 14 14 14 14 14
13 13 13 14 14 14 14 13 13 13 14 14 14 13 13 14 14 14 14 14 14 14 14 15 15 15 15 15 15 14 14 14 13 13 12 12 13 12 13 13 14 14 15 15 15 15 15 15 15
13 13 13 13 13 14 14 13 13 14 14 14 14 14 14 14 15 15 15 15 15 15 16 16 16 16 15 15 15 15 15 14 14 14 13 13 13 13 14 15 15 15 16 16 15 15 15 15 15
14 13 13 13 14 14 14 15 14 14 14 14 14 14 14 15 15 15 15 15 15 16 16 16 16 16 16 16 16 17 16 16 16 15 15 15 15 15 15 15 16 16 16 16 16 16 16 16 16
13 13 14 14 14 15 15 16 15 15 14 15 15 15 15 15 15 15 15 15 16 16 16 17 17 16 17 17 17 18 17 17 17 17 17 17 17 17 17 16 17 17 17 17 17 17 17 17 17
14 14 14 15 15 16 16 17 16 15 15 15 15 15 15 16 16 16 15 16 17 17 17 17 17 17 17 18 18 18 18 18 18 18 18 18 18 18 18 18 18 18 18 17 18 18 18 18 18
15 15 16 17 17 17 18 17 16 15 16 16 16 16 16 17 17 16 16 16 17 17 18 18 18 18 18 19 19 19 20 20 20 20 20 19 19 19 19 19 18 18 17 18 18 18 18 19 19
17 17 17 18 18 19 19 18 16 16 17 17 17 17 17 17 17 17 17 18 18 18 19 19 19 19 20 20 20 20 21 21 21 21 21 21 21 21 20 19 19 18 19 19 19 19 20 19 20
18 18 19 19 20 20 20 19 18 17 18 17 17 18 18 18 19 19 19 20 20 20 20 20 20 20 20 21 21 21 22 22 22 22 22 22 22 22 21 21 20 20 20 20 21 21 21 21 21
19 20 20 21 21 21 21 21 19 19 19 19 19 19 20 20 20 21 21 21 22 22 22 22 21 22 22 22 22 23 23 23 23 23 23 23 23 22 22 22 22 21 21 21 21 22 22 22 22
21 21 22 23 23 23 23 23 21 21 21 20 20 20 21 21 21 22 23 23 23 23 23 23 23 24 24 24 24 24 23 23 24 24 25 24 24 24 24 24 24 23 23 23 23 23 23 24 23
Wind_Direction
187 185 184 176 164 168 171 170 167 163 156 163 168 165 156 147 138 147 151 149 135 112 97 86 78 87 97 93 61 25 20 5 352 340 328 318 311 321 320 315 326 314 207 206 217 229 240 246 249
197 195 189 185 177 188 188 173 169 165 162 167 173 171 163 164 148 148 159 163 142 121 103 62 46 38 26 3 335 318 324 327 327 325 318 310 305 312 315 325 319 327 201 217 235 240 247 250 251
206 202 198 194 197 200 195 185 182 187 188 184 182 188 194 185 180 178 176 188 195 233 299 335 333 326 311 310 302 288 299 307 312 314 314 304 295 297 307 314 302 295 278 260 256 255 256 253 252
211 209 211 209 213 213 215 211 202 211 207 208 210 222 227 218 215 222 231 230 259 291 310 313 313 313 299 291 291 282 288 294 298 298 293 293 296 295 299 297 296 291 284 272 264 262 261 255 252
217 217 221 222 223 224 226 224 221 222 224 227 232 238 242 240 242 246 252 258 269 279 292 294 293 292 287 286 286 279 283 287 289 285 282 284 288 293 293 292 289 287 284 278 270 264 262 259 258
219 219 224 230 232 231 229 230 232 228 230 232 236 241 243 242 246 251 256 263 266 271 280 283 281 283 282 281 279 279 281 282 282 282 280 280 283 287 287 285 287 286 281 277 271 268 265 262 262
226 225 229 234 237 235 234 234 236 235 235 237 241 246 248 248 250 252 256 262 267 272 279 280 278 279 279 280 279 284 282 280 281 278 278 278 280 284 284 282 280 283 282 281 277 271 271 270 266
231 232 234 236 238 240 240 241 239 239 239 241 243 248 253 254 255 256 259 265 270 274 279 278 278 277 275 274 276 284 287 281 278 276 277 279 282 286 287 286 284 280 280 278 276 276 271 271 271
235 238 240 239 241 243 243 242 242 243 243 244 247 251 255 257 258 259 261 264 269 274 275 275 274 274 273 274 277 280 283 282 277 275 277 280 282 282 283 284 282 280 281 280 280 276 271 270 275
238 243 244 243 244 244 244 244 246 247 247 248 250 253 255 256 258 259 263 268 271 275 275 271 271 270 270 272 274 277 278 280 277 275 280 281 279 280 282 281 278 278 279 282 281 276 275 279 281
241 245 246 245 246 246 246 246 247 250 252 251 253 254 254 255 255 257 262 267 272 276 274 270 271 271 271 272 273 275 276 275 274 274 277 278 278 279 281 280 277 275 277 281 283 279 280 282 283
245 247 248 248 250 252 250 249 250 250 252 252 253 253 252 254 255 255 259 264 269 272 270 268 271 273 273 272 272 273 273 273 273 273 274 275 276 276 277 280 279 277 278 279 281 280 281 285 286
245 247 248 250 251 253 251 249 249 249 250 252 254 251 251 255 256 256 259 262 267 268 268 269 270 270 272 272 273 273 272 272 274 274 275 276 277 277 276 278 279 282 281 283 284 282 286 287 290
247 247 248 250 252 252 250 248 249 247 251 253 254 253 252 255 257 258 261 262 264 266 268 271 272 273 274 275 275 276 276 275 273 273 275 277 278 277 275 276 279 282 284 282 282 282 282 285 287
247 249 248 249 252 252 251 249 249 250 252 253 254 254 254 255 256 258 260 262 263 265 266 269 273 275 275 276 278 280 280 276 275 276 277 278 276 275 276 279 281 283 284 282 279 277 279 283 284
247 248 248 248 251 252 250 249 250 252 252 252 254 255 256 257 256 257 259 260 263 267 268 270 273 275 275 277 278 279 278 278 279 280 279 278 278 279 280 281 283 284 284 282 280 279 283 283 285
246 248 249 249 250 250 249 249 251 254 255 254 255 257 259 260 260 257 258 261 263 266 270 273 275 277 278 281 280 278 279 280 280 280 279 280 279 280 281 279 278 278 280 280 280 281 282 282 284
248 248 247 249 249 249 249 250 252 255 257 257 258 259 261 261 262 260 259 262 264 266 270 273 275 276 277 280 280 278 278 278 278 279 279 279 280 282 282 280 279 280 279 277 277 279 281 282 284
246 246 245 246 247 249 250 251 253 254 256 257 257 258 261 262 261 261 260 263 265 266 269 274 277 277 278 278 278 275 274 275 276 275 276 278 280 282 282 281 280 283 281 279 279 280 280 281 282
247 247 247 247 247 248 250 252 252 253 255 255 256 259 262 263 262 261 261 263 266 268 271 275 277 278 278 279 278 276 276 275 274 272 272 274 278 280 282 281 279 280 283 283 281 279 280 282 282
247 246 248 249 251 252 253 253 254 255 256 256 257 259 262 263 263 263 262 263 266 268 270 273 275 277 278 277 277 275 276 274 272 271 272 275 277 277 280 282 282 282 283 283 282 280 281 282 283
247 246 248 250 252 254 256 256 258 258 257 259 259 260 261 263 265 266 265 265 267 268 271 272 274 275 276 277 276 276 277 274 272 273 274 276 278 280 282 282 282 284 283 282 281 280 279 280 282
249 248 251 252 254 256 258 258 258 259 260 260 260 260 261 263 264 267 268 267 266 268 270 272 273 275 275 276 277 276 276 273 271 272 275 277 279 281 283 283 282 282 283 282 280 279 280 280 280
248 250 255 255 256 258 259 260 258 261 261 261 262 261 262 263 265 269 270 269 268 269 270 272 273 275 275 276 277 276 275 273 271 272 275 278 280 281 282 283 281 282 282 280 279 278 280 280 279
249 250 256 258 260 263 261 259 259 260 260 262 262 263 263 263 266 268 270 271 269 270 271 273 274 274 275 276 275 276 275 274 272 272 276 278 280 280 281 282 282 282 281 280 279 280 280 280 279
249 251 253 259 262 265 263 261 261 261 260 261 262 264 264 263 264 267 270 271 270 270 271 273 274 275 276 276 275 275 274 273 272 273 276 278 279 279 279 280 281 281 281 281 281 280 281 281 280
251 253 256 260 262 264 264 265 261 262 260 260 261 264 265 265 266 268 270 271 271 271 272 273 274 274 276 277 277 276 274 274 274 274 275 277 278 279 277 277 278 279 279 279 279 280 281 281 280
252 253 254 258 264 267 267 267 267 265 262 262 262 265 266 267 267 269 269 270 271 272 273 274 274 274 275 276 276 277 275 275 274 273 274 276 278 279 279 276 277 277 279 279 279 280 279 279 279
253 252 254 258 261 265 269 268 268 267 264 263 265 267 267 267 267 268 268 269 270 271 272 273 274 273 274 276 277 277 276 274 273 273 274 275 276 277 277 277 276 278 279 279 279 279 279 279 278
255 254 255 259 263 265 267 269 269 269 267 265 265 266 267 267 267 267 268 269 271 272 273 273 273 273 274 275 277 277 275 274 273 273 274 275 275 276 277 277 277 277 277 278 279 279 279 278 277
Height
5879 5879 5880 5882 5883 5883 5882 5882 5882 5882 5882 5882 5883 5883 5883 5883 5884 5886 5883 5882 5881 5881 5880 5880 5879 5879 5879 5879 5879 5878 5878 5878 5877 5877 5877 5876 5875 5874 5873 5871 5869 5866 5866 5867 5869 5871 5871 5871 5871
5879 5879 5881 5882 5882 5882 5882 5882 5882 5882 5882 5882 5882 5883 5883 5882 5882 5882 5882 5881 5881 5881 5880 5880 5879 5879 5879 5879 5879 5878 5878 5878 5877 5877 5876 5875 5875 5874 5873 5871 5870 5868 5868 5868 5869 5870 5870 5870 5870
5878 5879 5881 5881 5881 5882 5882 5882 5882 5882 5882 5882 5882 5883 5883 5882 5882 5882 5881 5881 5881 5880 5880 5880 5879 5879 5879 5878 5878 5878 5878 5877 5877 5876 5876 5875 5874 5873 5873 5872 5870 5869 5869 5869 5869 5869 5869 5869 5869
5878 5879 5880 5881 5880 5881 5881 5881 5881 5882 5882 5882 5882 5882 5882 5882 5882 5881 5881 5880 5880 5880 5879 5879 5879 5878 5878 5878 5878 5877 5877 5877 5876 5876 5875 5874 5874 5873 5872 5871 5870 5870 5869 5869 5868 5868 5868 5868 5868
5877 5878 5879 5879 5879 5880 5880 5880 5881 5881 5881 5881 5881 5881 5881 5881 5881 5880 5880 5880 5880 5880 5879 5879 5878 5878 5878 5877 5877 5877 5876 5876 5875 5875 5874 5874 5873 5872 5872 5871 5870 5869 5869 5868 5868 5867 5867 5867 5867
5876 5877 5878 5878 5878 5879 5879 5879 5880 5880 5880 5881 5881 5881 5880 5880 5880 5880 5879 5879 5879 5879 5878 5878 5877 5877 5877 5876 5876 5875 5875 5875 5874 5874 5873 5873 5872 5871 5871 5870 5869 5868 5868 5867 5866 5866 5866 5866 5865
5875 5876 5876 5877 5877 5877 5878 5878 5878 5879 5879 5879 5879 5879 5879 5879 5879 5879 5878 5878 5878 5878 5877 5877 5876 5876 5876 5875 5875 5875 5874 5873 5873 5872 5872 5872 5871 5870 5870 5869 5868 5867 5867 5866 5865 5865 5864 5864 5863
5873 5875 5874 5875 5876 5876 5876 5876 5877 5877 5877 5878 5878 5878 5878 5878 5878 5877 5877 5877 5877 5877 5876 5876 5875 5875 5874 5874 5874 5873 5873 5872 5872 5871 5871 5870 5870 5869 5868 5868 5867 5866 5865 5864 5864 5863 5862 5862 5861
5871 5873 5873 5873 5874 5874 5874 5875 5875 5875 5876 5876 5876 5877 5877 5876 5876 5876 5876 5876 5876 5875 5875 5874 5874 5874 5873 5873 5872 5872 5871 5871 5870 5870 5869 5869 5869 5868 5867 5866 5865 5865 5864 5863 5862 5861 5861 5860 5859
5869 5870 5871 5871 5871 5872 5872 5873 5873 5874 5874 5874 5875 5875 5875 5875 5874 5874 5874 5874 5874 5874 5873 5873 5873 5872 5872 5871 5871 5870 5870 5869 5869 5868 5868 5867 5867 5866 5865 5865 5864 5863 5862 5861 5861 5860 5859 5858 5858
5866 5867 5868 5868 5869 5869 5870 5870 5871 5871 5872 5872 5872 5873 5873 5873 5873 5873 5873 5872 5872 5872 5872 5871 5871 5870 5870 5870 5869 5869 5868 5868 5867 5866 5866 5865 5865 5864 5864 5863 5862 5861 5860 5859 5859 5858 5857 5856 5856
5864 5865 5865 5866 5866 5867 5867 5868 5869 5869 5870 5870 5870 5870 5871 5871 5871 5871 5871 5871 5870 5870 5870 5869 5869 5869 5868 5868 5867 5867 5866 5866 5865 5864 5864 5863 5863 5862 5861 5860 5860 5859 5858 5857 5857 5856 5855 5854 5854
5861 5862 5863 5863 5864 5865 5865 5866 5866 5867 5867 5868 5868 5868 5868 5869 5869 5869 5869 5869 5868 5868 5868 5867 5867 5867 5866 5866 5865 5865 5864 5864 5863 5862 5862 5861 5861 5860 5859 5858 5858 5857 5856 5855 5855 5854 5853 5853 5852
5858 5859 5860 5861 5862 5862 5863 5864 5864 5865 5865 5865 5865 5866 5866 5866 5866 5867 5867 5867 5866 5866 5866 5865 5865 5865 5864 5864 5863 5863 5862 5861 5861 5860 5859 5859 5858 5858 5857 5856 5855 5855 5854 5853 5853 5852 5851 5850 5850
5856 5857 5858 5858 5859 5860 5861 5861 5862 5862 5862 5863 5863 5863 5864 5864 5864 5864 5864 5864 5864 5864 5864 5863 5863 5862 5862 5861 5861 5860 5860 5859 5858 5858 5857 5856 5856 5855 5854 5853 5853 5852 5851 5851 5850 5849 5849 5848 5847
5853 5854 5855 5856 5856 5857 5859 5859 5859 5859 5860 5860 5860 5861 5861 5861 5861 5862 5862 5862 5861 5861 5861 5861 5860 5860 5860 5859 5859 5858 5857 5856 5856 5855 5854 5854 5853 5852 5851 5851 5850 5849 5849 5848 5848 5847 5846 5846 5845
5850 5851 5852 5853 5853 5854 5855 5856 5857 5856 5857 5858 5858 5858 5859 5859 5859 5859 5859 5859 5859 5858 5858 5858 5858 5857 5857 5857 5856 5855 5855 5854 5853 5852 5852 5851 5850 5850 5849 5848 5848 5847 5846 5845 5845 5844 5843 5843 5842
5847 5848 5849 5850 5850 5851 5852 5853 5853 5854 5854 5855 5855 5856 5856 5856 5856 5856 5856 5856 5856 5856 5855 5855 5855 5854 5854 5854 5853 5853 5852 5851 5850 5850 5849 5848 5848 5847 5846 5845 5845 5844 5843 5843 5842 5841 5840 5840 5839
5843 5844 5846 5847 5847 5848 5849 5850 5850 5851 5851 5852 5852 5853 5853 5853 5853 5853 5853 5853 5853 5853 5853 5852 5852 5852 5851 5851 5850 5850 5849 5848 5848 5847 5847 5846 5845 5844 5843 5843 5842 5841 5840 5840 5839 5838 5837 5836 5836
5840 5842 5843 5844 5844 5845 5846 5847 5847 5848 5848 5849 5849 5849 5850 5850 5850 5850 5850 5850 5850 5850 5850 5849 5849 5849 5848 5848 5847 5847 5846 5846 5845 5844 5844 5843 5842 5842 5841 5840 5839 5838 5837 5836 5835 5835 5834 5833 5832
5837 5839 5840 5840 5841 5842 5843 5844 5844 5845 5845 5845 5846 5846 5846 5846 5846 5846 5846 5846 5847 5847 5846 5846 5846 5845 5845 5844 5844 5844 5843 5842 5842 5841 5841 5840 5839 5838 5838 5837 5836 5835 5834 5833 5832 5831 5830 5829 5828
5834 5835 5836 5837 5838 5839 5840 5841 5842 5842 5842 5842 5842 5843 5843 5843 5843 5843 5843 5843 5843 5843 5843 5842 5842 5842 5841 5841 5841 5840 5840 5839 5838 5838 5837 5837 5836 5835 5834 5833 5832 5831 5830 5829 5828 5827 5826 5825 5824
5831 5832 5833 5834 5834 5836 5836 5837 5839 5838 5839 5839 5839 5839 5839 5839 5839 5839 5839 5839 5839 5839 5839 5839 5838 5838 5838 5837 5837 5836 5836 5835 5835 5834 5834 5833 5832 5831 5830 5829 5828 5827 5826 5825 5824 5823 5822 5821 5820
5827 5829 5829 5830 5831 5832 5833 5833 5835 5835 5835 5835 5835 5835 5835 5835 5835 5835 5835 5835 5835 5835 5835 5834 5834 5834 5834 5833 5833 5832 5832 5831 5831 5830 5830 5829 5828 5827 5826 5825 5824 5823 5822 5820 5820 5818 5818 5817 5816
5824 5826 5826 5827 5827 5829 5829 5829 5831 5831 5831 5831 5831 5831 5831 5831 5831 5831 5831 5831 5831 5831 5831 5830 5830 5829 5829 5829 5828 5828 5827 5827 5826 5826 5825 5824 5823 5822 5821 5820 5819 5818 5817 5816 5815 5814 5813 5812 5811
5820 5822 5824 5824 5824 5825 5824 5825 5827 5827 5826 5826 5827 5827 5827 5827 5827 5827 5827 5827 5826 5826 5826 5826 5825 5825 5824 5824 5823 5823 5822 5822 5821 5821 5820 5819 5818 5817 5816 5815 5814 5813 5812 5811 5810 5809 5808 5807 5806
5815 5817 5819 5819 5819 5820 5820 5821 5822 5822 5822 5822 5822 5822 5823 5823 5823 5823 5823 5822 5822 5821 5821 5821 5820 5820 5819 5819 5818 5818 5817 5816 5816 5815 5815 5814 5813 5812 5811 5810 5809 5808 5807 5806 5805 5804 5803 5802 5801
5812 5812 5813 5813 5814 5815 5816 5816 5817 5817 5817 5818 5818 5818 5818 5818 5818 5818 5818 5817 5817 5816 5816 5815 5815 5814 5814 5813 5813 5812 5811 5811 5810 5810 5809 5808 5807 5806 5805 5805 5804 5803 5801 5800 5799 5798 5797 5796 5795
5806 5807 5808 5808 5809 5810 5810 5813 5812 5812 5812 5812 5812 5812 5813 5812 5812 5812 5812 5812 5811 5811 5810 5810 5809 5809 5808 5807 5807 5806 5805 5805 5804 5804 5803 5802 5801 5800 5800 5799 5798 5797 5796 5794 5793 5792 5791 5790 5789
5800 5801 5802 5803 5803 5803 5804 5808 5806 5806 5806 5806 5806 5806 5806 5806 5806 5806 5806 5806 5805 5805 5804 5804 5803 5802 5802 5801 5800 5800 5799 5798 5798 5797 5796 5795 5795 5794 5793 5792 5791 5790 5789 5788 5787 5786 5785 5783 5782